TimeEST,TemperatureF,Dew PointF,Humidity,Sea Level PressureIn,VisibilityMPH,Wind Direction,Wind SpeedMPH,Gust SpeedMPH,PrecipitationIn,Events,Conditions,WindDirDegrees,DateUTC
12:56 AM,25.2,24.1,96,30.25,7.0,Calm,Calm,-,N/A,,Clear,0,2012-11-09 05:56:00
1:56 AM,25.2,24.1,96,30.25,5.0,Calm,Calm,-,N/A,,Clear,0,2012-11-09 06:56:00
2:56 AM,25.2,24.1,96,30.27,6.0,Calm,Calm,-,N/A,,Clear,0,2012-11-09 07:56:00
3:56 AM,24.1,23.0,96,30.27,4.0,Calm,Calm,-,N/A,,Partly Cloudy,0,2012-11-09 08:56:00
4:56 AM,25.2,23.0,91,30.29,5.0,Calm,Calm,-,N/A,,Clear,0,2012-11-09 09:56:00
5:56 AM,24.1,23.0,96,30.30,7.0,Calm,Calm,-,N/A,,Clear,0,2012-11-09 10:56:00
6:56 AM,24.1,23.0,96,30.32,7.0,Calm,Calm,-,N/A,,Clear,0,2012-11-09 11:56:00
7:56 AM,28.0,27.1,96,30.32,5.0,Calm,Calm,-,N/A,,Overcast,0,2012-11-09 12:56:00
8:56 AM,31.1,29.1,92,30.33,3.0,Calm,Calm,-,N/A,,Mostly Cloudy,0,2012-11-09 13:56:00
9:56 AM,36.9,32.0,83,30.32,8.0,Calm,Calm,-,N/A,,Clear,0,2012-11-09 14:56:00
10:56 AM,43.9,34.0,68,30.32,9.0,Calm,Calm,-,N/A,,Clear,0,2012-11-09 15:56:00
11:56 AM,47.8,34.9,61,30.29,9.0,West,5.8,-,N/A,,Partly Cloudy,260,2012-11-09 16:56:00
12:56 PM,50.9,34.9,54,30.27,9.0,WSW,10.4,-,0.00,Rain,Light Rain,250,2012-11-09 17:56:00
1:56 PM,52.0,34.9,52,30.25,10.0,SW,10.4,-,0.00,,Clear,220,2012-11-09 18:56:00
2:56 PM,50.9,34.9,54,30.25,10.0,WSW,6.9,-,N/A,,Mostly Cloudy,240,2012-11-09 19:56:00
3:56 PM,52.0,34.9,52,30.26,10.0,SW,5.8,-,N/A,,Partly Cloudy,220,2012-11-09 20:56:00
4:56 PM,48.9,34.0,56,30.25,10.0,SW,4.6,-,N/A,,Clear,230,2012-11-09 21:56:00
5:56 PM,45.0,32.9,63,30.25,10.0,Calm,Calm,-,N/A,,Clear,0,2012-11-09 22:56:00
6:56 PM,43.0,32.9,68,30.26,10.0,Calm,Calm,-,N/A,,Clear,0,2012-11-09 23:56:00
7:56 PM,38.8,32.0,76,30.26,10.0,Calm,Calm,-,N/A,,Clear,0,2012-11-10 00:56:00
8:56 PM,37.9,32.0,79,30.27,10.0,Calm,Calm,-,N/A,,Clear,0,2012-11-10 01:56:00
9:56 PM,36.0,32.0,86,30.26,10.0,Calm,Calm,-,N/A,,Clear,0,2012-11-10 02:56:00
10:56 PM,32.9,31.1,93,30.25,7.0,Calm,Calm,-,N/A,,Partly Cloudy,0,2012-11-10 03:56:00
11:56 PM,36.0,32.0,86,30.25,9.0,Calm,Calm,-,N/A,,Overcast,0,2012-11-10 04:56:00